Regional Weather Roundup
Issued by NWS Little Rock, AR

Home | Current Version | Previous Version | Text Only | Print | Product List | Glossary Off
Versions: 1 2 3 4 5 6 7 8 9 10 11 12 13 14 15 16 17 18 19 20 21 22 23 24 25 26 27 28 29 30 31 32 33 34 35 36 37 38 39 40 41 42 43 44 45 46 47 48 49 50

613
ASUS44 KLZK 190705
RWRLZK

WEATHER ROUNDUP FOR ARKANSAS
NATIONAL WEATHER SERVICE LITTLE ROCK AR
100 AM CST SUN FEB 19 2017

NOTE: "FAIR" INDICATES FEW OR NO CLOUDS BELOW 12,000 FEET WITH NO
SIGNIFICANT WEATHER AND/OR OBSTRUCTIONS TO VISIBILITY.

ARZ001-003-010-029-190800-
NORTHWEST ARKANSAS

CITY           SKY/WX    TMP DP  RH WIND       PRES   REMARKS
FAYETTEVILLE   CLEAR     42  42 100 CALM      29.92F FOG
FORT SMITH     CLEAR     52  49  89 E5        29.92R
HARRISON       CLEAR     51  48  89 SE5       29.94F
BENTONVILLE    CLEAR     50  46  87 SE5       29.93S
SILOAM SPGS    CLEAR     50  46  87 E7        29.91S
HIGHFILL       CLEAR     47  45  93 SE5       29.91F
$$

ARZ004-005-016-190800-
NORTH CENTRAL ARKANSAS

CITY           SKY/WX    TMP DP  RH WIND       PRES   REMARKS
BATESVILLE     CLEAR     52  48  87 CALM      29.99R
FLIPPIN        CLEAR     48  45  87 E3        29.93F
MTN HOME       CLEAR     49  48  97 S6        29.95S FOG
$$

ARZ040-041-190800-
WEST CENTRAL ARKANSAS

CITY           SKY/WX    TMP DP  RH WIND       PRES   REMARKS
MENA           CLOUDY    54  52  94 CALM      29.95S VSB 3/4
MOUNT IDA      MOCLDY    47  46  97 CALM      29.92S FOG
$$

ARZ009-017-025-026-028-190800-
NORTHEAST ARKANSAS

CITY           SKY/WX    TMP DP  RH WIND       PRES   REMARKS
CORNING        FOG       45  45 100 CALM      29.97R VSB 1/4
JONESBORO      FOG       47  46  97 CALM      29.97R VSB 1/2
NEWPORT        CLOUDY    51  50  96 SW6       29.98R
WALNUT RIDGE   CLEAR     48  45  87 S5        29.96R
BLYTHEVILLE    CLEAR     51  50  96 MISG      29.97R FOG
$$

ARZ022-023-033-042-044-190800-
CENTRAL ARKANSAS

CITY           SKY/WX    TMP DP  RH WIND       PRES   REMARKS
LITTLE ROCK    CLEAR     50  50 100 CALM      29.97S
N LITTLE ROCK    N/A     54  53  95 CALM      29.97S
JACKSONVILLE   CLEAR     46  46  99 CALM      29.96S
SEARCY         FOG       48  48 100 N3        29.99S VSB 1/4
HOT SPRINGS    FOG       48  48 100 CALM      29.95F VSB 1/2
RUSSELLVILLE   CLEAR     49  47  93 SE5       29.94F
$$

ARZ036-190800-
EAST ARKANSAS

CITY           SKY/WX    TMP DP  RH WIND       PRES   REMARKS
WEST MEMPHIS   CLEAR     50  50 100 S5        29.96F
$$

ARZ050-053-066-070-073-190800-
SOUTHWEST ARKANSAS

CITY           SKY/WX    TMP DP  RH WIND       PRES   REMARKS
ARKADELPHIA    CLOUDY    52  51  97 CALM      29.95F
CAMDEN         PTCLDY    48  46  93 CALM      29.95F
TEXARKANA      PTCLDY    54  54 100 E5        29.92S
EL DORADO      MOCLDY    52  50  93 CALM      29.95S
DE QUEEN       CLEAR     53  53 100 E5        29.91S FOG
$$

ARZ056-057-069-190800-
SOUTHEAST ARKANSAS

CITY           SKY/WX    TMP DP  RH WIND       PRES   REMARKS
PINE BLUFF     FOG       48  48 100 CALM      29.97R VSB 1/4
STUTTGART      CLEAR     52  45  76 E5        29.98S
MONTICELLO     CLEAR     56  53  90 S3        29.96S

$$






USA.gov is the U.S. government's official web portal to all federal, state and local government web resources and services.